Location: Schommer Observatory
(40.5200°N, 74.4500°W)
Time: 22:59:57
(UTC-04:00)

Envisat - Pass Details

Date: 22 May 2018
Orbit: 764 x 766 km, 98.2° (Epoch: 17 October)

Event Time Altitude Azimuth Distance (km) Brightness Sun altitude
Rises 20:53:38 0° 187° (S) 3,218 5.9 -7.2°
Reaches altitude 10° 20:56:05 10° 195° (SSW) 2,296 5.3 -7.6°
Maximum altitude 21:00:46 37° 263° (W) 1,172 4.5 -8.3°
Drops below altitude 10° 21:05:29 10° 330° (NNW) 2,311 6.7 -9.0°
Sets 21:07:58 0° 339° (NNW) 3,241 7.4 -9.4°
